Location: Gollag?dem
(16.8053°N, 80.8024°E)
Time: 08:17:27
(UTC+00:00)

Meteor 1-27 Rocket - Pass Details

Date: 13 August 2020
Orbit: 831 x 909 km, 81.3° (Epoch: 19 September)

Event Time Altitude Azimuth Distance (km) Brightness Sun altitude
Rises 14:53:20 0° 359° (N) 3,531 7.3 -25.6°
Reaches altitude 10° 14:55:50 10° 3° (N) 2,589 6.5 -26.2°
Enters shadow 15:00:56 57° 48° (NE) 1,054 4.0 -27.3°
